JASON-3

Last updated on Wed Sep 17 2025 00:02:31 GMT+0000 (Coordinated Universal Time)

1 41240U 16002A 25259.60458415 -.00000037 00000+0 98001-4 0 9998 2 41240 66.0447 341.0190 0007776 265.2020 94.8111 12.87627038452023
UTC large
Height (km)
Speed (km/s)
/
Latitude / Longitude
Inclination (degrees)
Orbital Period (minutes)
Azimuth
Elevation
Range (km)
Doppler Factor

Next 0 passes for location: London (51.5072 / 0.1276)

Sorry there are no passes over London.